Time,TemperatureF,DewpointF,PressureIn,WindDirection,WindDirectionDegrees,WindSpeedMPH,WindSpeedGustMPH,Humidity,HourlyPrecipIn,Conditions,Clouds,dailyrainin,SolarRadiationWatts/m^2,SoftwareType,DateUTC
2013-09-06 00:23:00,77.0,72.0,-100.00,SE,142,0.0,0.0,85,0.00,,,0.00,0.000000,,2013-09-06 05:23:00,
2013-09-06 00:34:00,77.0,72.0,-100.00,SE,142,0.0,0.0,85,0.00,,,0.00,0.000000,,2013-09-06 05:34:00,
2013-09-06 00:43:00,77.0,72.0,-100.00,SE,142,0.0,0.0,85,0.00,,,0.00,0.000000,,2013-09-06 05:43:00,
2013-09-06 00:52:00,77.0,72.0,-100.00,SE,142,0.0,0.0,85,0.00,,,0.00,0.000000,,2013-09-06 05:52:00,
2013-09-06 01:02:00,77.0,72.0,-100.00,SE,142,0.0,0.0,85,0.00,,,0.00,0.000000,,2013-09-06 06:02:00,
2013-09-06 01:22:00,76.0,73.0,-100.00,WSW,258,0.0,0.0,89,0.00,,,0.00,0.000000,,2013-09-06 06:22:00,
2013-09-06 01:32:00,76.0,73.0,-100.00,WSW,258,0.0,0.0,89,0.00,,,0.00,0.000000,,2013-09-06 06:32:00,
2013-09-06 01:42:00,76.0,73.0,-100.00,WSW,258,0.0,0.0,89,0.00,,,0.00,0.000000,,2013-09-06 06:42:00,
2013-09-06 01:53:00,76.0,73.0,-100.00,WSW,258,0.0,0.0,89,0.00,,,0.00,0.000000,,2013-09-06 06:53:00,
2013-09-06 02:01:00,76.0,73.0,-100.00,WSW,258,0.0,0.0,89,0.00,,,0.00,0.000000,,2013-09-06 07:01:00,
2013-09-06 02:03:00,75.0,72.0,-100.00,South,189,1.0,5.0,91,0.00,,,0.00,0.000000,,2013-09-06 07:03:00,
2013-09-06 02:23:00,75.0,72.0,-100.00,South,189,1.0,5.0,91,0.00,,,0.00,0.000000,,2013-09-06 07:23:00,
2013-09-06 02:32:00,75.0,72.0,-100.00,South,189,1.0,5.0,91,0.00,,,0.00,0.000000,,2013-09-06 07:32:00,
2013-09-06 02:42:00,75.0,72.0,-100.00,South,189,1.0,5.0,91,0.00,,,0.00,0.000000,,2013-09-06 07:42:00,
2013-09-06 02:52:00,75.0,72.0,-100.00,South,189,1.0,5.0,91,0.00,,,0.00,0.000000,,2013-09-06 07:52:00,
2013-09-06 03:22:00,74.0,72.0,-100.00,SW,235,0.0,1.0,93,0.00,,,0.00,0.000000,,2013-09-06 08:22:00,
2013-09-06 03:32:00,74.0,72.0,-100.00,SW,235,0.0,1.0,93,0.00,,,0.00,0.000000,,2013-09-06 08:32:00,
2013-09-06 03:42:00,74.0,72.0,-100.00,SW,235,0.0,1.0,93,0.00,,,0.00,0.000000,,2013-09-06 08:42:00,
2013-09-06 03:52:00,74.0,72.0,-100.00,SW,235,0.0,1.0,93,0.00,,,0.00,0.000000,,2013-09-06 08:52:00,
2013-09-06 04:02:00,74.0,72.0,-100.00,SW,235,0.0,1.0,93,0.00,,,0.00,0.000000,,2013-09-06 09:02:00,
2013-09-06 04:03:00,73.0,71.0,-100.00,West,263,0.0,0.0,95,0.00,,,0.00,0.000000,,2013-09-06 09:03:00,
2013-09-06 04:43:00,73.0,71.0,-100.00,West,263,0.0,0.0,95,0.00,,,0.00,0.000000,,2013-09-06 09:43:00,
2013-09-06 04:54:00,73.0,71.0,-100.00,West,263,0.0,0.0,95,0.00,,,0.00,0.000000,,2013-09-06 09:54:00,
2013-09-06 05:43:00,73.0,72.0,-100.00,SW,223,0.0,0.0,97,0.00,,,0.00,0.000000,,2013-09-06 10:43:00,
2013-09-06 05:53:00,73.0,72.0,-100.00,SW,223,0.0,0.0,97,0.00,,,0.00,0.000000,,2013-09-06 10:53:00,
2013-09-06 06:02:00,73.0,72.0,-100.00,SW,223,0.0,0.0,97,0.00,,,0.00,0.000000,,2013-09-06 11:02:00,
2013-09-06 06:22:00,73.0,72.0,-100.00,NW,319,0.0,1.0,97,0.00,,,0.00,0.000000,,2013-09-06 11:22:00,
2013-09-06 06:33:00,73.0,72.0,-100.00,NW,319,0.0,1.0,97,0.00,,,0.00,0.000000,,2013-09-06 11:33:00,
2013-09-06 06:42:00,73.0,72.0,-100.00,NW,319,0.0,1.0,97,0.00,,,0.00,0.000000,,2013-09-06 11:42:00,
2013-09-06 06:52:00,73.0,72.0,-100.00,NW,319,0.0,1.0,97,0.00,,,0.00,0.000000,,2013-09-06 11:52:00,
2013-09-06 07:02:00,73.0,72.0,-100.00,NW,319,0.0,1.0,97,0.00,,,0.00,0.000000,,2013-09-06 12:02:00,
2013-09-06 07:22:00,71.0,70.0,-100.00,WNW,284,0.0,0.0,97,0.00,,,0.00,1.000000,,2013-09-06 12:22:00,
2013-09-06 07:32:00,71.0,70.0,-100.00,WNW,284,0.0,0.0,97,0.00,,,0.00,1.000000,,2013-09-06 12:32:00,
2013-09-06 07:42:00,71.0,70.0,-100.00,WNW,284,0.0,0.0,97,0.00,,,0.00,1.000000,,2013-09-06 12:42:00,
2013-09-06 07:52:00,71.0,70.0,-100.00,WNW,284,0.0,0.0,97,0.00,,,0.00,1.000000,,2013-09-06 12:52:00,
2013-09-06 08:02:00,71.0,70.0,-100.00,WNW,284,0.0,0.0,97,0.00,,,0.00,1.000000,,2013-09-06 13:02:00,
2013-09-06 08:42:00,74.0,73.0,-100.00,West,273,0.0,2.0,97,0.00,,,0.00,66.000000,,2013-09-06 13:42:00,
2013-09-06 08:52:00,74.0,73.0,-100.00,West,273,0.0,2.0,97,0.00,,,0.00,66.000000,,2013-09-06 13:52:00,
2013-09-06 09:02:00,74.0,73.0,-100.00,West,273,0.0,2.0,97,0.00,,,0.00,66.000000,,2013-09-06 14:02:00,
2013-09-06 09:42:00,82.0,74.0,-100.00,East,101,0.0,0.0,77,0.00,,,0.00,273.000000,,2013-09-06 14:42:00,
2013-09-06 09:52:00,82.0,74.0,-100.00,East,101,0.0,0.0,77,0.00,,,0.00,273.000000,,2013-09-06 14:52:00,
2013-09-06 10:01:00,82.0,74.0,-100.00,East,101,0.0,0.0,77,0.00,,,0.00,273.000000,,2013-09-06 15:01:00,
2013-09-06 10:03:00,86.0,75.0,-100.00,NNW,337,0.0,0.0,69,0.00,,,0.00,499.000000,,2013-09-06 15:03:00,
2013-09-06 10:22:00,86.0,75.0,-100.00,NNW,337,0.0,0.0,69,0.00,,,0.00,499.000000,,2013-09-06 15:22:00,
2013-09-06 10:34:00,86.0,75.0,-100.00,NNW,337,0.0,0.0,69,0.00,,,0.00,499.000000,,2013-09-06 15:34:00,
2013-09-06 10:43:00,86.0,75.0,-100.00,NNW,337,0.0,0.0,69,0.00,,,0.00,499.000000,,2013-09-06 15:43:00,
2013-09-06 10:53:00,86.0,75.0,-100.00,NNW,337,0.0,0.0,69,0.00,,,0.00,499.000000,,2013-09-06 15:53:00,
2013-09-06 11:03:00,91.0,75.0,-100.00,SSE,153,3.0,6.0,59,0.00,,,0.00,701.000000,,2013-09-06 16:03:00,
2013-09-06 11:43:00,91.0,75.0,-100.00,SSE,153,3.0,6.0,59,0.00,,,0.00,701.000000,,2013-09-06 16:43:00,
2013-09-06 11:53:00,91.0,75.0,-100.00,SSE,153,3.0,6.0,59,0.00,,,0.00,701.000000,,2013-09-06 16:53:00,
2013-09-06 12:24:00,93.0,72.0,-100.00,East,85,5.0,11.0,51,0.00,,,0.00,881.000000,,2013-09-06 17:24:00,
2013-09-06 12:34:00,93.0,72.0,-100.00,East,85,5.0,11.0,51,0.00,,,0.00,881.000000,,2013-09-06 17:34:00,
2013-09-06 12:43:00,93.0,72.0,-100.00,East,85,5.0,11.0,51,0.00,,,0.00,881.000000,,2013-09-06 17:43:00,
2013-09-06 12:53:00,93.0,72.0,-100.00,East,85,5.0,11.0,51,0.00,,,0.00,881.000000,,2013-09-06 17:53:00,
2013-09-06 13:02:00,93.0,72.0,-100.00,East,85,5.0,11.0,51,0.00,,,0.00,881.000000,,2013-09-06 18:02:00,
2013-09-06 13:42:00,94.0,66.0,-100.00,ENE,74,5.0,10.0,40,0.00,,,0.00,779.000000,,2013-09-06 18:42:00,
2013-09-06 13:52:00,94.0,66.0,-100.00,ENE,74,5.0,10.0,40,0.00,,,0.00,779.000000,,2013-09-06 18:52:00,
2013-09-06 14:02:00,94.0,66.0,-100.00,ENE,74,5.0,10.0,40,0.00,,,0.00,779.000000,,2013-09-06 19:02:00,
2013-09-06 14:43:00,96.0,65.0,-100.00,SE,146,6.0,10.0,37,0.00,,,0.00,603.000000,,2013-09-06 19:43:00,
2013-09-06 14:52:00,96.0,65.0,-100.00,SE,146,6.0,10.0,37,0.00,,,0.00,603.000000,,2013-09-06 19:52:00,
2013-09-06 15:02:00,96.0,65.0,-100.00,SE,146,6.0,10.0,37,0.00,,,0.00,603.000000,,2013-09-06 20:02:00,
2013-09-06 15:23:00,94.0,71.0,-100.00,SW,236,5.0,11.0,47,0.00,,,0.00,863.000000,,2013-09-06 20:23:00,
2013-09-06 15:32:00,94.0,71.0,-100.00,SW,236,5.0,11.0,47,0.00,,,0.00,863.000000,,2013-09-06 20:32:00,
2013-09-06 15:42:00,94.0,71.0,-100.00,SW,236,5.0,11.0,47,0.00,,,0.00,863.000000,,2013-09-06 20:42:00,
2013-09-06 15:52:00,94.0,71.0,-100.00,SW,236,5.0,11.0,47,0.00,,,0.00,863.000000,,2013-09-06 20:52:00,
2013-09-06 16:01:00,94.0,71.0,-100.00,SW,236,5.0,11.0,47,0.00,,,0.00,863.000000,,2013-09-06 21:01:00,
2013-09-06 16:03:00,97.0,67.0,-100.00,SSW,212,3.0,8.0,38,0.00,,,0.00,775.000000,,2013-09-06 21:03:00,
2013-09-06 16:43:00,97.0,67.0,-100.00,SSW,212,3.0,8.0,38,0.00,,,0.00,775.000000,,2013-09-06 21:43:00,
2013-09-06 16:54:00,97.0,67.0,-100.00,SSW,212,3.0,8.0,38,0.00,,,0.00,775.000000,,2013-09-06 21:54:00,
2013-09-06 17:03:00,98.0,62.0,-100.00,ESE,105,4.0,9.0,31,0.00,,,0.00,591.000000,,2013-09-06 22:03:00,
2013-09-06 17:44:00,98.0,62.0,-100.00,ESE,105,4.0,9.0,31,0.00,,,0.00,591.000000,,2013-09-06 22:44:00,
2013-09-06 17:54:00,98.0,62.0,-100.00,ESE,105,4.0,9.0,31,0.00,,,0.00,591.000000,,2013-09-06 22:54:00,
2013-09-06 18:43:00,96.0,61.0,-100.00,East,83,5.0,11.0,32,0.00,,,0.00,319.000000,,2013-09-06 23:43:00,
2013-09-06 18:52:00,96.0,61.0,-100.00,East,83,5.0,11.0,32,0.00,,,0.00,319.000000,,2013-09-06 23:52:00,
2013-09-06 19:01:00,96.0,61.0,-100.00,East,83,5.0,11.0,32,0.00,,,0.00,319.000000,,2013-09-07 00:01:00,
2013-09-06 19:22:00,93.0,63.0,-100.00,SSE,148,2.0,8.0,37,0.00,,,0.00,142.000000,,2013-09-07 00:22:00,
2013-09-06 19:32:00,93.0,63.0,-100.00,SSE,148,2.0,8.0,37,0.00,,,0.00,142.000000,,2013-09-07 00:32:00,
2013-09-06 19:42:00,93.0,63.0,-100.00,SSE,148,2.0,8.0,37,0.00,,,0.00,142.000000,,2013-09-07 00:42:00,
2013-09-06 19:52:00,93.0,63.0,-100.00,SSE,148,2.0,8.0,37,0.00,,,0.00,142.000000,,2013-09-07 00:52:00,
2013-09-06 20:02:00,93.0,63.0,-100.00,SSE,148,2.0,8.0,37,0.00,,,0.00,142.000000,,2013-09-07 01:02:00,
2013-09-06 20:42:00,88.0,67.0,-100.00,SSE,168,5.0,11.0,50,0.00,,,0.00,12.000000,,2013-09-07 01:42:00,
2013-09-06 20:53:00,88.0,67.0,-100.00,SSE,168,5.0,11.0,50,0.00,,,0.00,12.000000,,2013-09-07 01:53:00,
2013-09-06 21:02:00,88.0,67.0,-100.00,SSE,168,5.0,11.0,50,0.00,,,0.00,12.000000,,2013-09-07 02:02:00,
2013-09-06 21:43:00,84.0,70.0,-100.00,South,186,4.0,10.0,63,0.00,,,0.00,0.000000,,2013-09-07 02:43:00,
2013-09-06 21:52:00,84.0,70.0,-100.00,South,186,4.0,10.0,63,0.00,,,0.00,0.000000,,2013-09-07 02:52:00,
2013-09-06 22:02:00,84.0,70.0,-100.00,South,186,4.0,10.0,63,0.00,,,0.00,0.000000,,2013-09-07 03:02:00,
2013-09-06 22:03:00,82.0,70.0,-100.00,South,188,3.0,7.0,68,0.00,,,0.00,0.000000,,2013-09-07 03:03:00,
2013-09-06 22:23:00,82.0,70.0,-100.00,South,188,3.0,7.0,68,0.00,,,0.00,0.000000,,2013-09-07 03:23:00,
2013-09-06 22:34:00,82.0,70.0,-100.00,South,188,3.0,7.0,68,0.00,,,0.00,0.000000,,2013-09-07 03:34:00,
2013-09-06 22:45:00,82.0,70.0,-100.00,South,188,3.0,7.0,68,0.00,,,0.00,0.000000,,2013-09-07 03:45:00,
2013-09-06 22:55:00,82.0,70.0,-100.00,South,188,3.0,7.0,68,0.00,,,0.00,0.000000,,2013-09-07 03:55:00,
2013-09-06 23:03:00,79.0,71.0,-100.00,SW,228,0.0,2.0,76,0.00,,,0.00,0.000000,,2013-09-07 04:03:00,
2013-09-06 23:24:00,79.0,71.0,-100.00,SW,228,0.0,2.0,76,0.00,,,0.00,0.000000,,2013-09-07 04:24:00,
2013-09-06 23:34:00,79.0,71.0,-100.00,SW,228,0.0,2.0,76,0.00,,,0.00,0.000000,,2013-09-07 04:34:00,
2013-09-06 23:43:00,79.0,71.0,-100.00,SW,228,0.0,2.0,76,0.00,,,0.00,0.000000,,2013-09-07 04:43:00,
2013-09-06 23:54:00,79.0,71.0,-100.00,SW,228,0.0,2.0,76,0.00,,,0.00,0.000000,,2013-09-07 04:54:00,